RH
17 16 18 33 68 62 56 41 57 64 40 35 38 42 44 52 53 48 45 42 30 20 12 11 11 10 9 7 7 7 7 8 7 5 5 3 2 2 4 9 13 16 15
14 21 38 62 62 63 57 66 67 43 45 40 43 46 54 56 49 46 36 24 13 12 13 12 10 7 7 7 7 7 7 7 5 4 3 3 6 10 15 16 15 9 6
21 24 41 71 66 76 83 74 62 47 42 44 50 57 59 52 43 29 19 14 14 14 12 9 8 7 8 8 7 6 5 4 5 9 7 11 15 17 15 10 5 9 18
22 41 78 70 80 86 85 81 57 44 46 50 61 59 51 36 27 17 16 17 15 11 9 9 9 10 9 8 6 4 5 8 14 18 20 18 17 14 6 9 15 20 21
49 81 73 93 98 94 91 50 45 51 50 64 59 47 33 25 18 19 18 13 11 10 11 13 12 11 8 4 5 8 16 20 23 23 21 18 11 5 18 21 20 18 20
71 69 92 95 98 88 45 55 50 54 68 58 42 31 25 22 21 15 12 10 10 13 15 13 13 9 4 6 14 21 26 28 25 21 13 5 7 24 23 22 15 15 23
74 87 95 97 79 50 58 47 63 68 54 36 31 26 23 17 13 11 11 14 17 18 16 17 9 4 8 16 20 24 23 17 7 5 5 20 24 19 11 13 47 75 90
86 94 93 70 49 50 49 71 65 47 33 29 26 21 17 13 12 14 15 19 18 19 21 9 5 10 17 20 18 12 6 6 7 21 31 25 12 26 46 61 65 69 85
84 87 53 49 49 56 76 60 41 32 29 26 20 18 15 14 15 17 20 19 22 23 9 7 15 15 11 8 7 6 10 23 32 34 21 15 56 85 82 78 84 86 91
62 46 51 47 71 77 56 38 33 30 25 22 18 15 15 16 20 25 24 28 24 10 9 14 9 7 8 9 14 18 25 29 22 19 48 100 100 100 99 98 93 76 78
45 46 49 78 74 52 38 34 31 26 21 18 16 16 20 24 29 29 33 25 10 12 13 8 10 12 15 19 20 25 24 18 62 100 100 97 96 100 100 100 98 93 96
48 54 81 70 48 39 36 31 27 21 18 17 18 21 25 32 35 34 26 11 19 14 10 16 15 18 19 21 23 18 36 99 100 99 99 100 100 100 100 100 99 98 94
71 80 64 47 41 37 32 28 23 19 19 19 20 23 28 31 34 25 10 18 14 9 16 18 19 19 20 23 15 70 97 97 100 100 100 100 100 100 100 100 100 100 98
72 64 49 43 39 35 29 24 20 21 21 22 25 27 29 32 25 9 14 13 8 13 18 19 18 20 19 19 86 96 100 98 99 100 100 100 100 100 100 100 100 100 100
62 50 47 41 36 30 25 22 24 26 27 29 32 34 33 24 10 13 12 7 12 17 18 19 22 19 26 98 100 99 100 100 100 100 100 100 100 100 100 100 100 100 100
54 51 44 38 33 26 25 28 31 32 36 41 42 38 23 8 16 13 7 10 17 18 20 24 18 54 98 100 100 100 100 100 100 100 100 100 100 100 100 100 100 100 100
52 46 41 36 28 29 26 25 25 33 40 41 37 22 7 16 14 8 7 15 19 22 26 19 78 100 100 100 100 100 100 100 99 97 95 100 100 100 100 100 100 100 100
48 42 31 30 29 26 26 28 31 30 30 34 22 6 13 16 9 7 13 18 21 26 20 88 100 100 100 100 100 100 100 98 82 60 47 55 76 96 100 97 100 100 100
40 32 34 30 25 25 28 31 31 31 31 20 6 10 17 9 7 10 16 17 22 17 88 97 100 100 100 100 97 76 42 30 31 32 30 23 19 20 53 96 97 95 98
36 35 29 25 24 28 31 30 30 29 17 6 9 17 9 8 8 15 17 20 17 82 93 100 100 99 90 52 28 28 32 42 40 37 32 24 19 15 16 26 83 100 99
38 31 28 26 26 28 30 29 27 16 5 7 18 10 10 7 12 16 18 19 89 97 99 100 95 55 23 21 25 32 35 36 35 36 41 25 24 21 18 22 35 43 98
33 30 28 26 27 30 28 27 17 6 8 18 11 11 11 11 16 16 20 84 92 97 93 69 28 22 24 27 33 40 43 45 52 54 57 38 30 28 27 34 35 34 28
33 29 26 28 30 27 26 18 6 9 17 10 12 13 15 15 15 20 77 92 90 65 29 20 22 27 35 46 56 54 45 37 51 76 78 63 36 36 60 56 50 40 26
27 26 28 30 27 26 19 6 12 18 9 13 14 18 15 15 19 65 91 83 39 19 19 25 40 63 84 89 79 56 39 33 45 97 85 58 39 50 58 63 59 52 46
28 29 29 29 27 19 7 14 17 9 13 16 16 17 14 16 52 90 74 26 18 27 48 69 79 73 60 34 20 20 20 23 40 86 85 43 51 67 81 84 76 67 62
28 26 28 29 18 7 14 16 9 12 17 16 17 14 14 33 90 66 23 24 48 61 64 59 37 19 16 17 18 18 23 25 47 74 52 41 48 66 75 76 68 59 52
Wind_Speed
33 35 36 37 38 40 41 41 43 47 49 52 55 59 62 66 69 70 68 67 68 70 74 79 84 90 95 101 106 110 113 113 112 103 96 92 87 86 83 83 85 82 81
34 35 36 37 40 41 42 44 46 48 52 55 59 63 67 70 69 66 66 68 71 75 81 86 92 97 102 107 110 112 110 104 101 97 86 82 78 73 72 74 78 79 77
35 37 38 40 41 42 44 46 48 52 55 60 64 67 69 66 64 66 68 72 77 83 89 94 100 105 109 111 111 107 99 93 88 86 82 74 72 73 73 74 70 63 63
37 38 39 40 40 43 46 47 51 55 60 64 68 67 64 64 67 69 74 80 85 90 96 101 105 110 113 112 103 95 89 85 81 79 78 75 74 75 73 65 58 60 60
37 37 39 40 42 46 47 51 55 60 63 67 65 63 65 67 71 77 82 86 91 96 100 105 110 114 108 98 91 85 82 79 78 79 79 79 76 64 58 56 55 49 46
37 39 40 44 47 47 51 55 59 63 66 62 62 64 67 73 79 83 88 93 98 101 106 110 115 107 94 87 81 79 80 82 83 84 81 71 56 55 55 54 46 39 34
39 41 44 44 46 50 54 58 61 63 60 61 64 68 73 78 82 88 92 97 100 105 110 114 104 93 86 79 76 79 81 81 75 68 56 49 50 52 44 33 24 27 28
41 43 43 46 49 54 56 61 59 58 60 63 67 73 77 82 88 94 97 101 105 110 114 104 92 84 80 82 83 80 70 56 47 43 46 46 44 35 31 29 29 28 27
38 41 45 49 52 55 60 56 56 58 62 67 73 76 81 88 94 98 102 106 110 113 102 89 86 86 85 79 69 56 46 40 40 40 40 37 33 38 42 41 42 38 29
40 44 47 50 55 57 54 55 57 61 67 72 76 81 87 93 98 102 108 112 111 101 86 85 83 77 65 51 48 43 40 38 34 29 27 31 38 42 44 41 34 25 22
43 46 48 54 53 52 53 57 60 66 70 74 79 86 91 97 101 106 110 110 96 86 85 78 67 55 46 43 40 39 36 29 23 28 32 33 30 28 28 28 27 26 21
45 48 52 50 49 52 56 61 65 68 72 78 84 90 95 99 103 107 107 91 83 84 73 63 51 44 40 37 36 32 24 27 29 25 25 26 24 24 25 25 26 27 24
47 49 46 48 51 55 60 64 68 73 79 85 90 93 97 101 105 107 90 78 80 69 61 50 45 39 35 32 29 22 27 24 23 25 24 24 23 22 23 25 25 24 24
45 44 46 50 55 59 64 67 73 79 84 89 93 96 100 104 106 92 78 78 65 57 48 45 37 32 30 24 23 28 24 24 22 23 24 23 23 23 23 22 22 23 25
43 45 49 54 57 61 66 71 77 84 89 93 97 100 103 103 90 78 77 64 57 48 45 35 29 26 20 23 28 23 22 22 22 22 22 21 22 23 23 23 22 22 26
44 49 53 57 60 64 70 76 83 88 92 95 98 101 101 87 77 75 63 54 47 44 33 27 23 17 21 22 18 20 19 19 20 20 20 20 21 21 22 22 23 23 24
48 52 56 60 63 69 75 80 85 88 92 95 98 99 87 73 74 64 53 44 43 33 28 22 18 22 20 16 17 17 17 18 19 20 21 21 20 20 21 20 20 22 23
51 55 58 63 69 75 80 84 87 90 92 95 96 84 71 71 64 54 42 40 32 31 23 18 22 18 16 15 17 18 19 21 23 23 23 22 20 18 18 18 19 20 21
54 57 63 69 74 79 82 85 89 93 96 95 81 67 68 60 53 41 38 32 27 21 17 21 15 16 15 18 21 21 21 19 18 20 23 23 22 19 16 15 14 15 17
57 62 68 73 78 81 84 87 91 95 93 79 67 65 60 53 38 33 30 24 19 16 19 15 16 17 20 20 19 18 16 16 20 21 22 23 24 21 17 12 10 10 11
62 68 74 79 81 83 86 90 94 90 78 65 63 61 55 42 31 29 21 16 14 19 16 15 19 20 20 18 18 18 18 19 20 21 21 20 26 23 14 10 6 5 4
67 73 79 81 82 85 90 93 90 77 64 60 58 52 45 31 28 20 15 13 16 13 14 18 18 18 19 19 20 21 22 22 21 18 17 18 21 21 17 11 8 5 2
73 78 81 82 84 89 92 89 75 63 59 58 51 43 33 27 20 13 12 14 12 15 17 18 18 20 21 21 21 20 19 18 15 13 16 17 18 19 17 16 12 7 4
77 79 81 83 88 91 90 74 60 59 58 49 42 34 26 21 10 9 11 10 14 16 18 19 21 22 22 22 23 22 20 18 13 13 12 17 18 19 19 17 16 14 11
77 80 83 87 90 89 72 60 59 58 48 41 33 27 20 9 6 8 9 13 16 18 19 21 22 23 24 26 28 27 23 17 12 11 13 16 18 20 21 21 20 18 15
79 83 87 89 88 71 61 60 57 47 40 32 27 18 10 4 7 9 13 17 17 18 20 21 24 26 28 30 31 29 23 18 15 14 15 17 18 19 20 22 21 20 18
Wind_Direction
281 282 285 289 290 290 291 292 294 296 297 299 301 302 305 307 309 310 310 309 308 308 309 311 310 308 306 306 306 306 306 304 304 303 300 298 296 294 293 293 295 295 292
281 285 287 290 290 291 291 292 297 299 300 301 303 306 308 310 311 310 309 308 309 311 311 310 308 307 308 308 308 307 306 305 302 302 301 299 297 295 295 294 293 294 292
286 288 289 289 291 291 294 297 299 300 302 304 306 309 311 311 310 309 310 311 312 311 309 309 309 309 310 311 309 307 305 303 302 302 303 302 301 300 298 297 295 291 290
285 286 289 292 293 297 297 300 300 302 305 307 311 312 311 310 310 311 312 312 311 310 310 310 311 312 312 312 309 307 304 304 304 304 304 304 304 304 303 300 296 293 290
286 291 292 295 298 296 301 300 303 305 308 312 312 311 311 311 312 312 312 312 311 311 312 312 313 314 314 311 308 307 306 304 304 303 304 305 305 302 300 302 305 303 297
292 293 294 295 295 300 301 303 305 310 313 312 311 311 313 313 313 313 313 313 313 313 313 314 316 315 312 309 308 306 305 305 304 303 304 305 304 305 304 306 308 304 302
292 294 296 297 299 301 303 306 310 312 312 311 313 314 313 314 315 315 316 316 315 314 316 317 317 312 310 307 304 304 304 305 305 304 305 305 306 308 312 313 315 321 317
292 294 297 298 300 302 307 311 312 311 312 314 314 314 315 315 317 318 317 317 316 317 319 318 313 312 308 306 306 307 310 310 309 309 311 310 313 318 320 317 313 313 314
294 295 297 300 303 308 310 310 311 313 314 314 315 314 315 318 319 319 317 317 318 320 318 315 313 311 309 309 312 315 319 319 318 315 312 315 320 319 317 317 316 319 316
295 297 300 303 308 310 309 310 312 314 314 315 314 316 318 320 319 318 318 319 320 319 317 316 315 314 317 318 319 323 323 322 319 316 315 316 316 315 314 320 328 339 330
298 302 305 308 309 308 309 312 313 314 314 315 317 319 320 320 319 319 320 322 319 319 320 320 320 322 321 322 324 324 325 329 329 325 320 319 323 329 331 331 337 338 339
300 304 307 306 307 310 312 312 312 314 315 316 319 320 320 319 320 321 323 320 319 321 322 323 324 324 324 325 325 328 335 336 331 333 336 338 343 344 339 335 336 335 335
304 305 305 307 310 311 310 312 313 315 316 318 319 320 319 319 321 323 322 320 320 320 323 325 326 324 327 328 331 339 339 341 348 352 354 353 353 350 350 350 350 351 354
305 305 307 310 309 310 312 314 315 317 319 319 320 319 319 322 324 323 321 322 321 324 325 326 327 331 332 336 341 342 347 352 360 2 2 2 2 3 4 4 4 4 0
305 307 308 308 310 313 315 315 317 319 320 320 320 321 322 325 324 322 324 324 325 328 328 332 334 334 339 340 339 346 352 358 0 1 1 5 7 6 7 7 6 5 6
306 307 308 310 312 314 315 318 320 321 321 321 322 324 326 325 324 325 326 326 328 329 334 337 338 343 342 342 347 348 354 357 356 353 357 5 7 7 6 7 9 12 13
307 308 311 313 313 315 318 320 321 321 321 322 324 326 325 324 325 325 328 330 331 334 339 342 347 344 348 353 354 356 356 353 352 352 354 355 358 2 8 9 13 17 20
309 312 313 314 317 320 321 321 321 321 321 323 325 325 324 326 326 327 330 332 332 336 344 350 347 352 352 356 356 353 350 345 342 342 340 339 341 346 352 1 7 17 21
312 314 316 319 321 322 321 321 322 322 323 326 325 324 325 326 326 328 331 331 335 342 347 347 353 348 356 353 348 347 348 355 1 2 359 352 344 335 331 337 354 8 21
313 317 320 323 323 322 321 322 322 323 326 324 325 325 326 327 327 329 329 334 340 348 349 351 352 355 351 352 356 1 6 7 5 2 359 359 353 344 335 324 325 348 7
316 319 323 324 322 321 322 322 323 326 325 325 326 327 328 330 331 332 336 341 350 347 355 359 352 356 3 6 3 0 355 348 344 348 351 356 1 2 349 340 336 333 345
319 323 324 323 321 322 323 323 325 325 326 326 326 327 328 331 332 336 341 355 357 359 359 357 6 9 4 360 351 345 340 337 338 341 352 357 2 6 9 13 20 20 352
323 323 322 321 322 323 323 325 325 325 326 326 325 327 330 331 332 341 3 4 8 8 11 14 12 9 6 0 357 354 349 349 355 8 12 8 13 13 19 29 29 27 44
322 321 321 321 321 322 325 325 325 326 327 325 326 327 330 330 339 11 16 23 23 28 25 21 18 14 9 4 358 353 353 360 14 24 22 27 32 37 41 43 41 42 43
320 321 320 320 322 325 324 325 325 326 324 324 324 327 327 333 30 35 43 44 45 39 31 25 21 18 14 12 12 12 14 20 40 43 38 50 55 48 46 42 41 39 39
321 320 320 321 325 324 324 324 325 324 323 322 324 326 323 54 66 73 66 65 56 43 36 33 32 32 28 21 15 13 24 44 54 57 62 74 62 54 46 38 37 35 38